Погода в Зинькове

Украина / Хмельницкая область     49°04′06″N   27°04′23″E
темп.,
°C
ветер,
м/с
пор.,
м/с
влажн.,
%
обл.,
%
осадки,
мм/ч
давл.,
гПа
погр.,
м
27 июля, вт
вт2700:00+18ююв467792 0.1 101896
03:00+17юв48765 0.2 1018116
06:00+17ююв497595 0.1 1017169
09:00+22ююв51163100 0.4 1017336
12:00+25ю565893 0.4 1017548
15:00+28ю555499 0.4 1016842
18:00+27ююз796088 0.0 10161036
21:00+21ю477863 0.6 101686
28 июля, ср
ср2800:00+20ю47851 0.3 1015106
03:00+19зюз37895 0.3 1015107
06:00+18зсз34920 0.0 101560
09:00+24сз35735 0.0 1015316
12:00+28сз23545 0.0 1015918
15:00+31зюз344588 0.0 10141616
18:00+30ю224915 0.0 10121187
21:00+25юв356688 0.0 101261
29 июля, чт
чт2900:00+21ю4107999 0.2 1012249
03:00+18с33860 0.2 101246
06:00+18ю22880 0.0 101217
09:00+23сз47730 0.0 1012494
12:00+26сз56600 0.0 10131014
15:00+27ссз555711 0.0 10131368
18:00+27с455763 0.0 10121395
21:00+21св33800 0.0 101338
30 июля, пт
пт3000:00+20с11820 0.3 101311
03:00+18ссз11860 0.3 101311
06:00+18зюз11880 0.0 101411
09:00+23ю21715 0.0 1013310
12:00+27ю32530 0.0 10131348
15:00+29ю33440 0.0 10111632
18:00+28ююв34463 0.0 10091220
21:00+23ююв45673 0.0 100980
31 июля, сб
сб3100:00+19ссз6996100 7.5 1009214
03:00+19юв4794100 18.4 1009135
06:00+19зсз229711 0.5 100946
09:00+22ссз23815 0.5 1009386
12:00+26с22615 0.0 1009910
15:00+28с22495 0.0 10081296
18:00+28всв22515 0.0 10071225
21:00+23вюв34680 0.0 100743